Regional Weather Roundup
Issued by NWS

Home | Current Version | Previous Version | Text Only | Print | Product List | Glossary On
Versions: 1 2 3 4 5 6 7 8 9 10 11 12 13 14 15 16 17 18 19 20 21 22 23 24 25 26 27 28 29 30 31 32 33 34 35 36 37 38 39 40 41 42 43 44 45 46 47 48 49 50
538
ASCA44 KEWX 230020
RWRMX

LATIN AMERICA AND CARIBBEAN REGIONAL WEATHER ROUNDUP
NATIONAL WEATHER SERVICE AUSTIN/SAN ANTONIO TX
700 PM CDT WED MAR 22 2017

NOTE: "FAIR" INDICATED FEW OR NO CLOUDS BELOW 12,000 FEET WITH NO
SIGNIFICANT WEATHER AND/OR OBSTRUCTIONS TO VISIBILITY.

BAJA CALIFORNIA

CITY           SKY/WX    TMP DP  RH WIND       PRES   REMARKS
LORETO         MOSUNNY   79  68  69 NE18      29.87F
LA PAZ         MOSUNNY   82  50  32 NW9       29.88
MEXICALI       CLOUDY    68  52  56 W10       29.88
S.J. DEL CABO  MOSUNNY   81  61  50 SE10      29.89R
TIJUANA        PTSUNNY   61  48  63 W13       30.02F

NORTHWESTERN MEXICO

CITY           SKY/WX    TMP DP  RH WIND       PRES   REMARKS
CULIACAN       MOSUNNY   88  57  35 SW7       29.84
DURANGO        MOSUNNY   82  18   9 E5        30.11
GUAYMAS        SUNNY     81  59  47 SW13      29.82
HERMOSILLO     SUNNY     90  39  17 SW7       29.89S
CD. JUAREZ     MOSUNNY   91  28  10 SW8G20    29.84
LOS MOCHIS     PTSUNNY   86  45  23 NW14      29.86F
OBREGON        SUNNY     84  46  26 W14       29.85

NORTHEASTERN MEXICO

CITY           SKY/WX    TMP DP  RH WIND       PRES   REMARKS
CHIHUAHUA      PTSUNNY   91  27   9 S7        29.95
MATAMOROS      PTCLDY    79  64  61 SE17      30.06
MONCLOVA         N/A    N/A N/A N/A MISG        N/A
MONTERREY      MOSUNNY   84  55  37 SE14      29.98R
NUEVO LAREDO   SUNNY     86  57  37 SE16      29.97
PIEDRAS NEGRAS MOSUNNY   86  63  45 SE10      29.97S
REYNOSA        PTCLDY    77  59  53 SE17      30.03
SALTILLO       SUNNY     75  50  41 N23       30.16R
TORREON        MOSUNNY   93  28  10 NE8       29.96F
CD. VICTORIA   SUNNY     86  55  35 E9        30.01

WESTERN MEXICO

CITY           SKY/WX    TMP DP  RH WIND       PRES   REMARKS
AGUASCALIENTES MOSUNNY   84  12   6 SE2       30.16
COLIMA           N/A    N/A N/A N/A MISG        N/A
DEL BAJIO      MOSUNNY   84  23  10 N7        30.18S
GUADALAJARA    SUNNY     86  25  10 W9        30.06
MANZANILLO     MOSUNNY   79  72  78 W16       29.82R
MAZATLAN       MOSUNNY   81  66  61 NW14      29.90R
P. VALLARTA    PTSUNNY   79  72  78 SW13      29.85
URUAPAN        SUNNY     81  52  36 S9        30.08S
ZACATECAS      MOSUNNY   79  23  12 CALM      30.21S

CENTRAL MEXICO

CITY           SKY/WX    TMP DP  RH WIND       PRES   REMARKS
CUERNAVACA     SUNNY     90  19   7 NE12      29.95S
MEXICO CITY    SUNNY     73  18  12 N18       30.29R
MORELIA        SUNNY     82  25  12 E3        30.13
POZA RICA      CLEAR     79  68  69 E12       30.08R
PUEBLA         CLEAR     72  18  13 N15G28    30.27R
QUERETARO      SUNNY     77  23  13 NE21      30.26R
S. LUIS POTOSI MOSUNNY   81  21  11 E10       30.18S
TAMPICO        PTCLDY    77  66  69 E14       30.05R
TOLUCA         SUNNY     70  19  14 NW16      30.35R

SOUTHERN MEXICO

CITY           SKY/WX    TMP DP  RH WIND       PRES   REMARKS
ACAPULCO       MOSUNNY   82  72  69 SW9       29.86R
B. DE HUATULCO MOCLDY    81  72  74 SW12      29.94
OAXACA         MOCLDY    81  18   9 NW15      30.12R
P. ESCONDIDO   MOCLDY    84  73  70 S12       29.99R HX  91
VERACRUZ       CLEAR     79  66  65 E6        30.03S
ZIHUATANEJO    MOSUNNY   84  72  65 SW9       29.86R

YUCATAN PENINSULA

CITY           SKY/WX    TMP DP  RH WIND       PRES   REMARKS
CAMPECHE       CLEAR     79  70  73 N12G23    29.98R
CANCUN         CLEAR     77  64  65 NE2       30.07R
CHETUMAL       PTCLDY    79  66  65 SE12      30.02
CD. DEL CARMEN PTCLDY    81  72  74 N14       29.98
COZUMEL        PTCLDY    79  66  65 E7        30.05R
MERIDA         CLEAR     81  59  47 NE17      30.03R
MINATITLAN     CLEAR     79  70  73 N12       29.99
TAPACHULA      MOCLDY    86  68  54 W9        29.84R
TUX. GUTIERREZ PTCLDY    81  59  47 W17       29.94R
VILLAHERMOSA   CLEAR     81  70  69 N7        29.99R

CENTRAL AMERICA

CITY           SKY/WX    TMP DP  RH WIND       PRES   REMARKS
BELIZE CITY    PTCLDY    79  72  78 E7        30.02R
MANAGUA        PTCLDY    88  61  40 E16       29.86R

CARIBBEAN

CITY           SKY/WX    TMP DP  RH WIND       PRES   REMARKS
ARUBA          PTCLDY    81  75  83 NE16      29.83S
CURACAO        PTCLDY    81  75  83 E14       29.86S
KINGSTON       PTCLDY    77  72  83 VRB2      29.94S
NASSAU         PTCLDY    75  55  50 N5        30.10R
SAN JUAN       PTCLDY    79  73  83 E8        29.97R
SANTO DOMINGO  PTCLDY    77  73  88 SE5       29.94R
ST. CROIX      PTCLDY    79  73  83 E8        29.99R
ST. KITTS      PTCLDY    79  72  78 NE10      29.97S
ST. MAARTEN    PTCLDY    79  73  83 E12       30.00R
ST. THOMAS     CLEAR     79  73  83 E10       29.98

$$





USA.gov is the U.S. government's official web portal to all federal, state and local government web resources and services.